This demonstration page uses our WeatherBlox Daily Observations layout. Learn more.

Left ArrowRight Arrow

47.50024, -111.30081

Hourly Observations for June 20, 2020

Temp ( °F °C ) Dew Point ( °F °C ) Humidity (%) Winds ( mph kmh ) Pressure ( in mb ) Visibility ( mi km ) Precip ( " mm )
12:53 am 00:53 Clear 50 10 48 8.9 93 93 SSW 6 9 29.94 1014 10 16 0.00 0.00
1:53 am 01:53 Clear 48 8.9 45 7.2 89 89 SW 8 13 29.93 1013 10 16 0.00 0.00
2:53 am 02:53 Clear 51 10.6 47 8.3 86 86 SW 12 19 29.90 1012 10 16 0.00 0.00
3:53 am 03:53 Clear 50 10 47 8.3 89 89 SW 8 13 29.91 1013 10 16 0.00 0.00
4:53 am 04:53 Mostly Cloudy 52 11.1 47 8.3 83 83 SSW 9 15 29.89 1012 10 16 0.00 0.00
5:53 am 05:53 Partly Cloudy 51 10.6 47 8.3 86 86 SSW 10 17 29.89 1012 10 16 0.00 0.00
6:53 am 06:53 Sunny 55 12.8 47 8.3 74 74 SSW 9 15 29.88 1012 10 16 0.00 0.00
7:53 am 07:53 Sunny 59 15 48 8.9 67 67 SSW 12 19 29.89 1012 10 16 0.00 0.00
8:53 am 08:53 Sunny 63 17.2 49 9.4 60 60 SW 13 20 29.88 1012 10 16 0.00 0.00
9:53 am 09:53 Sunny 68 20 48 8.9 49 49 SW 10 17 29.88 1012 10 16 0.00 0.00
10:53 am 10:53 Sunny 71 21.7 48 8.9 44 44 WSW 10 17 29.87 1012 10 16 0.00 0.00
11:53 am 11:53 Mostly Sunny 74 23.3 45 7.2 36 36 WNW 9 15 29.86 1011 10 16 0.00 0.00
12:53 pm 12:53 Mostly Sunny 77 25 47 8.3 35 35 WSW 9 15 29.85 1011 10 16 0.00 0.00
1:53 pm 13:53 Mostly Cloudy 75 23.9 46 7.8 36 36 WSW 12 19 29.86 1011 10 16 0.00 0.00
2:53 pm 14:53 Mostly Cloudy 74 23.3 45 7.2 36 36 WSW 12 19 29.85 1011 10 16 0.00 0.00
3:53 pm 15:53 Mostly Cloudy 73 22.8 46 7.8 38 38 WSW 6 9 29.85 1011 10 16 0.00 0.00
4:53 pm 16:53 Partly Cloudy 71 21.7 48 8.9 44 44 W 15 24 29.86 1011 10 16 0.04 1.02
5:53 pm 17:53 Mostly Sunny 71 21.7 45 7.2 39 39 W 13 20 29.86 1011 10 16 0.00 0.00
6:53 pm 18:53 Sunny 69 20.6 45 7.2 42 42 W 16 26 29.85 1011 10 16 0.00 0.00
7:53 pm 19:53 Mostly Sunny 67 19.4 44 6.7 44 44 WSW 21 33 29.85 1011 10 16 0.00 0.00
8:53 pm 20:53 Mostly Sunny 63 17.2 46 7.8 54 54 WSW 12 19 29.86 1011 10 16 0.00 0.00
9:53 pm 21:53 Mostly Cloudy 60 15.6 45 7.2 58 58 SW 10 17 29.86 1011 10 16 0.00 0.00
10:53 pm 22:53 Cloudy 60 15.6 46 7.8 60 60 SW 9 15 29.85 1011 10 16 0.00 0.00
11:53 pm 23:53 Cloudy 60 15.6 46 7.8 60 60 SW 9 15 29.84 1011 10 16 0.00 0.00

Powered by AerisWeather